Weather Roundup
Issued by NWS Springfield, MO

Home | Current Version | Previous Version | Text Only | Print | Product List | Glossary On
Versions: 1 2 3 4 5 6 7 8 9 10 11 12 13 14 15 16 17 18 19 20 21 22 23 24 25 26 27 28 29 30 31 32 33 34 35 36 37 38 39 40 41 42 43 44 45 46 47 48 49 50
000
NZUS99 KSGF 011307
HRRSGF

HOURLY WEATHER
NATIONAL WEATHER SERVICE SPRINGFIELD MO
800 AM CDT WED JUL 01 2015

......SGF CWA......

CITY           SKY/WX    TMP DP  RH WIND       PRES   REMARKS
SPRINGFIELD    LGT RAIN  68  65  90 SE10      29.97R
JOPLIN         LGT RAIN  78  71  79 SW5       29.92R
WEST PLAINS    RAIN      69  66  90 NW6       30.04R FOG
ROLLA          RAIN      68  67  96 S10       29.99R FOG
OSAGE BEACH    CLOUDY    66  64  94 S9        29.99F
BRANSON        CLOUDY    72  66  83 CALM      29.99S

......SURROUNDING SGF CWA......

CITY           SKY/WX    TMP DP  RH WIND       PRES   REMARKS
CHANUTE        CLOUDY    79  71  76 SE3       29.89R
PARSONS        CLOUDY    79  73  82 CALM      29.90R
COFFEYVILLE    CLOUDY    78  73  84 S6        29.87R
EMPORIA        PTSUNNY   80  65  59 S7        29.86F
GROVE OK       PTSUNNY   79  72  78 S5        29.91S
ROGERS AR      CLOUDY    76  71  85 SW8       29.96R
SILOAM SPRINGS PTSUNNY   75  66  73 SW10      29.95S
HARRISON AR    CLOUDY    76  70  82 NE6       29.98R
NEAR YELLVILLE CLOUDY    72  68  88 NE6       29.95F

......KANSAS AND MISSOURI......

CITY           SKY/WX    TMP DP  RH WIND       PRES   REMARKS
KANSAS CTY INT CLOUDY    69  68  96 SE14      29.83F
DOWNTOWN KC    LGT RAIN  70  68  93 SE7       29.84F FOG
COLUMBIA       LGT RAIN  69  68  96 S14       29.93R FOG
SEDALIA        CLOUDY    69  67  93 S9        29.91F
ST JOSEPH      LGT RAIN  70  68  93 S9        29.80F
ST LOUIS       CLOUDY    74  67  78 W7        29.92R
SPIRIT OF STL  CLOUDY    71  69  93 W3        29.91R FOG
KIRKSVILLE     LGT RAIN  71  71 100 CALM      29.91R FOG
WICHITA        PTSUNNY   76  65  68 S9        29.85S
TOPEKA         PTSUNNY   71  68  90 SE9       29.86F
OLATHE         CLOUDY    68  66  93 SE10      29.89S

......TENNESSEE......

CITY           SKY/WX    TMP DP  RH WIND       PRES   REMARKS
MEMPHIS        CLOUDY    77  71  82 SW3       29.97R
NASHVILLE      CLOUDY    76  71  85 S7        29.99R

......ARKANSAS.......

CITY           SKY/WX    TMP DP  RH WIND       PRES   REMARKS
FAYETTEVILLE   PTSUNNY   75  71  87 SW9       29.94F
FT SMITH       PTSUNNY   78  71  79 CALM      29.94R
LITTLE ROCK    CLOUDY    75  69  81 SW6       29.97R

......OKLAHOMA.......

CITY           SKY/WX    TMP DP  RH WIND       PRES   REMARKS
TULSA          CLOUDY    81  71  71 S14       29.89F
PONCA CITY     PTSUNNY   79  69  71 SW10      29.88S
MCALESTER      MOSUNNY   78  71  79 SW10      29.97R
OKLAHOMA CITY  MOSUNNY   76  70  82 S12       29.94S

......IOWA............

CITY           SKY/WX    TMP DP  RH WIND       PRES   REMARKS
DES MOINES     PTSUNNY   69  61  75 NE7       29.92R
QUAD CITIES    FOG       63  61  93 E9        29.93R VSB 1

......ILLINOIS........

CITY           SKY/WX    TMP DP  RH WIND       PRES   REMARKS
QUINCY         CLOUDY    71  67  87 NW5       29.90S FOG
CHICAGO        CLOUDY    57  51  80 NE3       29.97S



USA.gov is the U.S. government's official web portal to all federal, state and local government web resources and services.